Overview Statistics Trail Chart Weather Telemetry Raw packets
 

This is the latest recevied weather packets stored in our database for station/object K7DC. If no packets are shown the sender has not sent any weather packets the latest 10 day(s).

<< 1 2 3 4 >>
Time Temp. Humidity Pressure Rain* Wind** Luminosity Snow
1788648043 38.89° C 26% 1013.7 hPa 0 mm - 458 W/m² -
1788647741 38.33° C 26% 1013.7 hPa 0 mm - 479 W/m² -
1788647437 38.89° C 27% 1013.5 hPa 0 mm - 497 W/m² -
1788647137 38.89° C 26% 1013.7 hPa 0 mm - 519 W/m² -
1788646832 39.44° C 25% 1013.8 hPa 0 mm - 539 W/m² -
1788646528 39.44° C 26% 1013.8 hPa 0 mm - 558 W/m² -
1788646224 40° C 24% 1013.8 hPa 0 mm - 580 W/m² -
1788645920 40° C 25% 1014.1 hPa 0 mm - 597 W/m² -
1788645616 39.44° C 25% 1014.1 hPa 0 mm - 612 W/m² -
1788645315 39.44° C 25% 1014 hPa 0 mm - 633 W/m² -
1788645012 38.89° C 25% 1014.2 hPa 0 mm - 433 W/m² -
1788644708 39.44° C 25% 1014.1 hPa 0 mm - 665 W/m² -
1788644408 39.44° C 25% 1014.3 hPa 0 mm - 684 W/m² -
1788644103 39.44° C 25% 1014.4 hPa 0 mm - 695 W/m² -
1788643798 39.44° C 25% 1014.4 hPa 0 mm - 714 W/m² -
1788643493 38.89° C 26% 1014.1 hPa 0 mm - 722 W/m² -
1788643192 38.89° C 26% 1014.4 hPa 0 mm - 729 W/m² -
1788642888 39.44° C 25% 1014.6 hPa 0 mm - 753 W/m² -
1788642583 38.89° C 26% 1014.4 hPa 0 mm - 763 W/m² -
1788642279 39.44° C 25% 1014.6 hPa 0 mm - 774 W/m² -
1788641978 38.33° C 27% 1014.8 hPa 0 mm - 788 W/m² -
1788641673 39.44° C 27% 1014.8 hPa 0 mm - 799 W/m² -
1788641372 38.89° C 26% 1015 hPa 0 mm - 810 W/m² -
1788641068 38.89° C 26% 1015.1 hPa 0 mm - 824 W/m² -
1788640767 39.44° C 25% 1015.2 hPa 0 mm - 818 W/m² -

* Rain latest hour (hover to see other rain measurements)
** Current wind speed in m/s (hover to see current wind gust speed)